Find Kosmos-516

NORAD ID: 6154 Int'l Des: 1972-066 Owner: TSKBM Country: SU operational
LEOCIRCULAR

リアルタイム位置

3D地球を読み込み中...

Kosmos-516について

説明を読み込み中...

次回通過

Passes for default location (London). Set your location on the main map for personalized predictions.

高度履歴

Loading altitude history...

軌道要素

1 6154U 72066A 26133.94359465 -.00000086 00000-0 29365-5 0 9992
2 6154 64.8107 278.6462 0053792 109.9082 250.7780 13.77810890703209
Epoch: May 13, 2026 • Age: 18 hours

現在のステータス

高度 940.4 km
速度 7.41 km/s
衛星直下点 54.63°N, 66.29°W
タイプ other

Most Searched